Time,TemperatureF,DewpointF,PressureIn,WindDirection,WindDirectionDegrees,WindSpeedMPH,WindSpeedGustMPH,Humidity,HourlyPrecipIn,Conditions,Clouds,dailyrainin,SoftwareType,DateUTC
2013-01-06 00:02:00,4.1,-99.9,25.39,North,-999,0.0,0.0,-999,0.00,,,-99.99,FreeWX 2.04,2013-01-06 07:02:00,
2013-01-06 00:07:00,4.1,-99.9,25.39,North,-999,0.0,0.0,-999,0.00,,,-99.99,FreeWX 2.04,2013-01-06 07:07:00,
2013-01-06 00:12:00,3.6,-99.9,25.39,North,-999,0.0,0.0,-999,0.00,,,-99.99,FreeWX 2.04,2013-01-06 07:12:00,
2013-01-06 00:17:00,3.7,-99.9,25.37,North,-999,0.0,0.0,-999,0.00,,,-99.99,FreeWX 2.04,2013-01-06 07:17:00,
2013-01-06 00:22:00,4.5,-99.9,25.37,North,-999,0.0,0.0,-999,0.00,,,-99.99,FreeWX 2.04,2013-01-06 07:22:00,
2013-01-06 00:27:00,4.8,-99.9,25.37,North,-999,0.0,0.0,-999,0.00,,,-99.99,FreeWX 2.04,2013-01-06 07:27:00,
2013-01-06 00:32:00,4.5,-99.9,25.37,North,-999,0.0,0.0,-999,0.00,,,-99.99,FreeWX 2.04,2013-01-06 07:32:00,
2013-01-06 00:37:00,4.5,-99.9,25.37,North,-999,0.0,0.0,-999,0.00,,,-99.99,FreeWX 2.04,2013-01-06 07:37:00,
2013-01-06 00:42:00,4.8,-99.9,25.37,North,-999,0.0,0.0,-999,0.00,,,-99.99,FreeWX 2.04,2013-01-06 07:42:00,
2013-01-06 00:47:00,5.2,-99.9,25.37,North,-999,0.0,0.0,-999,0.00,,,-99.99,FreeWX 2.04,2013-01-06 07:47:00,
2013-01-06 00:52:00,5.4,-99.9,25.37,North,-999,0.0,0.0,-999,0.00,,,-99.99,FreeWX 2.04,2013-01-06 07:52:00,
2013-01-06 00:57:00,5.2,-99.9,25.37,North,-999,0.0,0.0,-999,0.00,,,-99.99,FreeWX 2.04,2013-01-06 07:57:00,
2013-01-06 01:02:00,5.2,-99.9,25.37,North,-999,0.0,0.0,-999,0.00,,,-99.99,FreeWX 2.04,2013-01-06 08:02:00,
2013-01-06 01:07:00,5.5,-99.9,25.37,North,-999,0.0,0.0,-999,0.00,,,-99.99,FreeWX 2.04,2013-01-06 08:07:00,
2013-01-06 01:12:00,5.9,-99.9,25.37,North,-999,0.0,0.0,-999,0.00,,,-99.99,FreeWX 2.04,2013-01-06 08:12:00,
2013-01-06 01:17:00,5.7,-99.9,25.37,North,-999,0.0,0.0,-999,0.00,,,-99.99,FreeWX 2.04,2013-01-06 08:17:00,
2013-01-06 01:22:00,5.2,-99.9,25.37,North,-999,0.0,0.0,-999,0.00,,,-99.99,FreeWX 2.04,2013-01-06 08:22:00,
2013-01-06 01:27:00,3.7,-99.9,25.37,North,-999,0.0,0.0,-999,0.00,,,-99.99,FreeWX 2.04,2013-01-06 08:27:00,
2013-01-06 01:32:00,2.8,-99.9,25.37,North,-999,0.0,0.0,-999,0.00,,,-99.99,FreeWX 2.04,2013-01-06 08:32:00,
2013-01-06 01:37:00,2.8,-99.9,25.37,North,-999,0.0,0.0,-999,0.00,,,-99.99,FreeWX 2.04,2013-01-06 08:37:00,
2013-01-06 01:42:00,2.5,-99.9,25.37,North,-999,0.0,0.0,-999,0.00,,,-99.99,FreeWX 2.04,2013-01-06 08:42:00,
2013-01-06 01:47:00,2.7,-99.9,25.37,North,-999,0.0,0.0,-999,0.00,,,-99.99,FreeWX 2.04,2013-01-06 08:47:00,
2013-01-06 01:53:00,3.0,-99.9,25.37,North,-999,0.0,0.0,-999,0.00,,,-99.99,FreeWX 2.04,2013-01-06 08:53:00,
2013-01-06 01:58:00,3.7,-99.9,25.37,North,-999,0.0,2.7,-999,0.00,,,-99.99,FreeWX 2.04,2013-01-06 08:58:00,
2013-01-06 02:03:00,3.0,-99.9,25.37,North,-999,0.0,2.7,-999,0.00,,,-99.99,FreeWX 2.04,2013-01-06 09:03:00,
2013-01-06 02:08:00,2.8,-99.9,25.37,North,-999,0.0,2.7,-999,0.00,,,-99.99,FreeWX 2.04,2013-01-06 09:08:00,
2013-01-06 02:13:00,4.8,-99.9,25.37,North,-999,0.0,3.6,-999,0.00,,,-99.99,FreeWX 2.04,2013-01-06 09:13:00,
2013-01-06 02:18:00,3.2,-99.9,25.37,North,-999,0.0,2.7,-999,0.00,,,-99.99,FreeWX 2.04,2013-01-06 09:18:00,
2013-01-06 02:23:00,1.9,-99.9,25.37,North,-999,0.0,0.0,-999,0.00,,,-99.99,FreeWX 2.04,2013-01-06 09:23:00,
2013-01-06 02:28:00,1.9,-99.9,25.37,North,-999,0.0,0.0,-999,0.00,,,-99.99,FreeWX 2.04,2013-01-06 09:28:00,
2013-01-06 02:33:00,2.3,-99.9,25.37,North,-999,0.0,0.0,-999,0.00,,,-99.99,FreeWX 2.04,2013-01-06 09:33:00,
2013-01-06 02:38:00,1.9,-99.9,25.37,North,-999,0.0,0.0,-999,0.00,,,-99.99,FreeWX 2.04,2013-01-06 09:38:00,
2013-01-06 02:43:00,1.6,-99.9,25.37,North,-999,0.0,0.0,-999,0.00,,,-99.99,FreeWX 2.04,2013-01-06 09:43:00,
2013-01-06 02:48:00,1.2,-99.9,25.37,North,-999,0.0,0.0,-999,0.00,,,-99.99,FreeWX 2.04,2013-01-06 09:48:00,
2013-01-06 02:53:00,1.8,-99.9,25.37,North,-999,0.0,0.0,-999,0.00,,,-99.99,FreeWX 2.04,2013-01-06 09:53:00,
2013-01-06 02:58:00,2.5,-99.9,25.37,North,-999,0.0,0.0,-999,0.00,,,-99.99,FreeWX 2.04,2013-01-06 09:58:00,
2013-01-06 03:03:00,1.8,-99.9,25.37,North,-999,0.0,0.0,-999,0.00,,,-99.99,FreeWX 2.04,2013-01-06 10:03:00,
2013-01-06 03:08:00,1.0,-99.9,25.37,North,-999,0.0,0.0,-999,0.00,,,-99.99,FreeWX 2.04,2013-01-06 10:08:00,
2013-01-06 03:13:00,-0.2,-99.9,25.37,North,-999,0.0,0.0,-999,0.00,,,-99.99,FreeWX 2.04,2013-01-06 10:13:00,
2013-01-06 03:18:00,-0.6,-99.9,25.37,North,-999,0.0,0.0,-999,0.00,,,-99.99,FreeWX 2.04,2013-01-06 10:18:00,
2013-01-06 03:23:00,-0.8,-99.9,25.37,North,-999,0.0,0.0,-999,0.00,,,-99.99,FreeWX 2.04,2013-01-06 10:23:00,
2013-01-06 03:28:00,-0.6,-99.9,25.37,North,-999,0.0,0.0,-999,0.00,,,-99.99,FreeWX 2.04,2013-01-06 10:28:00,
2013-01-06 03:33:00,-0.8,-99.9,25.37,North,-999,0.0,0.0,-999,0.00,,,-99.99,FreeWX 2.04,2013-01-06 10:33:00,
2013-01-06 03:38:00,-0.9,-99.9,25.37,North,-999,0.0,2.7,-999,0.00,,,-99.99,FreeWX 2.04,2013-01-06 10:38:00,
2013-01-06 03:43:00,-1.3,-99.9,25.37,North,-999,0.0,2.7,-999,0.00,,,-99.99,FreeWX 2.04,2013-01-06 10:43:00,
2013-01-06 03:48:00,-1.7,-99.9,25.37,North,-999,0.0,0.0,-999,0.00,,,-99.99,FreeWX 2.04,2013-01-06 10:48:00,
2013-01-06 03:53:00,-1.5,-99.9,25.37,North,-999,0.0,0.0,-999,0.00,,,-99.99,FreeWX 2.04,2013-01-06 10:53:00,
2013-01-06 03:58:00,-1.3,-99.9,25.37,North,-999,0.0,0.0,-999,0.00,,,-99.99,FreeWX 2.04,2013-01-06 10:58:00,
2013-01-06 04:03:00,-1.1,-99.9,25.37,North,-999,0.0,0.0,-999,0.00,,,-99.99,FreeWX 2.04,2013-01-06 11:03:00,
2013-01-06 04:08:00,-0.9,-99.9,25.37,North,-999,0.0,0.0,-999,0.00,,,-99.99,FreeWX 2.04,2013-01-06 11:08:00,
2013-01-06 04:13:00,-0.6,-99.9,25.37,North,-999,0.0,0.0,-999,0.00,,,-99.99,FreeWX 2.04,2013-01-06 11:13:00,
2013-01-06 04:18:00,-0.8,-99.9,25.37,North,-999,0.0,0.0,-999,0.00,,,-99.99,FreeWX 2.04,2013-01-06 11:18:00,
2013-01-06 04:23:00,-0.6,-99.9,25.37,North,-999,0.0,0.0,-999,0.00,,,-99.99,FreeWX 2.04,2013-01-06 11:23:00,
2013-01-06 04:38:00,0.3,-99.9,25.37,North,-999,0.0,0.0,-999,0.00,,,-99.99,FreeWX 2.04,2013-01-06 11:38:00,
2013-01-06 04:48:00,0.1,-99.9,25.37,North,-999,0.0,0.0,-999,0.00,,,-99.99,FreeWX 2.04,2013-01-06 11:48:00,
2013-01-06 04:53:00,0.3,-99.9,25.37,North,-999,0.0,0.0,-999,0.00,,,-99.99,FreeWX 2.04,2013-01-06 11:53:00,
2013-01-06 04:58:00,-0.2,-99.9,25.37,North,-999,0.0,0.0,-999,0.00,,,-99.99,FreeWX 2.04,2013-01-06 11:58:00,
2013-01-06 05:03:00,-0.6,-99.9,25.37,North,-999,0.0,0.0,-999,0.00,,,-99.99,FreeWX 2.04,2013-01-06 12:03:00,
2013-01-06 05:08:00,-0.9,-99.9,25.37,North,-999,0.0,0.0,-999,0.00,,,-99.99,FreeWX 2.04,2013-01-06 12:08:00,
2013-01-06 05:13:00,0.5,-99.9,25.37,North,-999,0.0,0.0,-999,0.00,,,-99.99,FreeWX 2.04,2013-01-06 12:13:00,
2013-01-06 05:18:00,1.2,-99.9,25.34,North,-999,0.0,0.0,-999,0.00,,,-99.99,FreeWX 2.04,2013-01-06 12:18:00,
2013-01-06 05:23:00,1.6,-99.9,25.34,North,-999,0.0,0.0,-999,0.00,,,-99.99,FreeWX 2.04,2013-01-06 12:23:00,
2013-01-06 05:28:00,2.1,-99.9,25.34,North,-999,0.0,0.0,-999,0.00,,,-99.99,FreeWX 2.04,2013-01-06 12:28:00,
2013-01-06 05:33:00,2.8,-99.9,25.34,North,-999,0.0,0.0,-999,0.00,,,-99.99,FreeWX 2.04,2013-01-06 12:33:00,
2013-01-06 05:38:00,2.8,-99.9,25.34,North,-999,0.0,0.0,-999,0.00,,,-99.99,FreeWX 2.04,2013-01-06 12:38:00,
2013-01-06 05:43:00,2.3,-99.9,25.34,North,-999,0.0,4.5,-999,0.00,,,-99.99,FreeWX 2.04,2013-01-06 12:43:00,
2013-01-06 05:48:00,1.6,-99.9,25.34,West,274,1.0,4.5,-999,0.00,,,-99.99,FreeWX 2.04,2013-01-06 12:48:00,
2013-01-06 05:53:00,0.3,-99.9,25.34,North,-999,0.0,0.0,-999,0.00,,,-99.99,FreeWX 2.04,2013-01-06 12:53:00,
2013-01-06 05:58:00,-0.8,-99.9,25.34,North,-999,0.0,0.0,-999,0.00,,,-99.99,FreeWX 2.04,2013-01-06 12:58:00,
2013-01-06 06:03:00,-0.8,-99.9,25.34,North,-999,0.0,0.0,-999,0.00,,,-99.99,FreeWX 2.04,2013-01-06 13:03:00,
2013-01-06 06:08:00,-0.6,-99.9,25.34,North,-999,0.0,0.0,-999,0.00,,,-99.99,FreeWX 2.04,2013-01-06 13:08:00,
2013-01-06 06:13:00,-0.9,-99.9,25.34,North,-999,0.0,0.0,-999,0.00,,,-99.99,FreeWX 2.04,2013-01-06 13:13:00,
2013-01-06 06:18:00,-1.1,-99.9,25.37,North,-999,0.0,2.7,-999,0.00,,,-99.99,FreeWX 2.04,2013-01-06 13:18:00,
2013-01-06 06:23:00,-1.3,-99.9,25.37,North,-999,0.0,0.0,-999,0.00,,,-99.99,FreeWX 2.04,2013-01-06 13:23:00,
2013-01-06 06:28:00,-0.9,-99.9,25.37,North,-999,0.0,0.0,-999,0.00,,,-99.99,FreeWX 2.04,2013-01-06 13:28:00,
2013-01-06 06:33:00,-2.0,-99.9,25.37,North,-999,0.0,3.1,-999,0.00,,,-99.99,FreeWX 2.04,2013-01-06 13:33:00,
2013-01-06 06:38:00,-0.9,-99.9,25.37,North,-999,0.0,2.7,-999,0.00,,,-99.99,FreeWX 2.04,2013-01-06 13:38:00,
2013-01-06 06:43:00,-2.7,-99.9,25.37,North,-999,0.0,3.1,-999,0.00,,,-99.99,FreeWX 2.04,2013-01-06 13:43:00,
2013-01-06 06:48:00,-3.1,-99.9,25.34,North,-999,0.0,2.7,-999,0.00,,,-99.99,FreeWX 2.04,2013-01-06 13:48:00,
2013-01-06 06:53:00,-3.1,-99.9,25.34,North,-999,0.0,0.0,-999,0.00,,,-99.99,FreeWX 2.04,2013-01-06 13:53:00,
2013-01-06 06:58:00,-2.6,-99.9,25.34,North,-999,0.0,0.0,-999,0.00,,,-99.99,FreeWX 2.04,2013-01-06 13:58:00,
2013-01-06 07:03:00,-1.8,-99.9,25.34,North,-999,0.0,2.7,-999,0.00,,,-99.99,FreeWX 2.04,2013-01-06 14:03:00,
2013-01-06 07:08:00,-0.2,-99.9,25.34,NNE,16,1.0,3.1,-999,0.00,,,-99.99,FreeWX 2.04,2013-01-06 14:08:00,
2013-01-06 07:13:00,-1.1,-99.9,25.34,NNE,17,1.0,3.1,-999,0.00,,,-99.99,FreeWX 2.04,2013-01-06 14:13:00,
2013-01-06 07:18:00,-2.2,-99.9,25.34,North,-999,0.0,0.0,-999,0.00,,,-99.99,FreeWX 2.04,2013-01-06 14:18:00,
2013-01-06 07:23:00,-2.6,-99.9,25.34,North,-999,0.0,2.7,-999,0.00,,,-99.99,FreeWX 2.04,2013-01-06 14:23:00,
2013-01-06 07:28:00,-2.2,-99.9,25.34,North,-999,0.0,0.0,-999,0.00,,,-99.99,FreeWX 2.04,2013-01-06 14:28:00,
2013-01-06 07:33:00,-2.2,-99.9,25.34,North,-999,0.0,0.0,-999,0.00,,,-99.99,FreeWX 2.04,2013-01-06 14:33:00,
2013-01-06 07:38:00,-0.8,-99.9,25.34,North,-999,0.0,2.7,-999,0.00,,,-99.99,FreeWX 2.04,2013-01-06 14:38:00,
2013-01-06 07:43:00,0.7,-99.9,25.34,North,-999,0.0,3.6,-999,0.00,,,-99.99,FreeWX 2.04,2013-01-06 14:43:00,
2013-01-06 07:54:00,-0.9,-99.9,25.34,North,-999,0.0,0.0,-999,0.00,,,-99.99,FreeWX 2.04,2013-01-06 14:54:00,
2013-01-06 07:59:00,-1.7,-99.9,25.34,North,-999,0.0,0.0,-999,0.00,,,-99.99,FreeWX 2.04,2013-01-06 14:59:00,
2013-01-06 08:04:00,-1.8,-99.9,25.34,North,-999,0.0,0.0,-999,0.00,,,-99.99,FreeWX 2.04,2013-01-06 15:04:00,
2013-01-06 08:09:00,-1.5,-99.9,25.34,North,-999,0.0,0.0,-999,0.00,,,-99.99,FreeWX 2.04,2013-01-06 15:09:00,
2013-01-06 08:14:00,-0.9,-99.9,25.34,North,-999,0.0,0.0,-999,0.00,,,-99.99,FreeWX 2.04,2013-01-06 15:14:00,
2013-01-06 08:19:00,-0.4,-99.9,25.34,North,-999,0.0,2.7,-999,0.00,,,-99.99,FreeWX 2.04,2013-01-06 15:19:00,
2013-01-06 08:29:00,0.3,-99.9,25.34,North,-999,0.0,3.1,-999,0.00,,,-99.99,FreeWX 2.04,2013-01-06 15:29:00,
2013-01-06 08:34:00,0.7,-99.9,25.34,North,-999,0.0,2.7,-999,0.00,,,-99.99,FreeWX 2.04,2013-01-06 15:34:00,
2013-01-06 08:39:00,1.4,-99.9,25.34,North,-999,0.0,0.0,-999,0.00,,,-99.99,FreeWX 2.04,2013-01-06 15:39:00,
2013-01-06 08:44:00,0.9,-99.9,25.34,North,-999,0.0,0.0,-999,0.00,,,-99.99,FreeWX 2.04,2013-01-06 15:44:00,
2013-01-06 08:49:00,1.4,-99.9,25.34,North,-999,0.0,0.0,-999,0.00,,,-99.99,FreeWX 2.04,2013-01-06 15:49:00,
2013-01-06 09:09:00,21.2,-99.9,25.34,WSW,243,1.0,2.7,-999,0.00,,,-99.99,FreeWX 2.04,2013-01-06 16:09:00,
2013-01-06 09:49:00,21.2,-99.9,25.34,North,-999,0.0,0.0,-999,0.00,,,-99.99,FreeWX 2.04,2013-01-06 16:49:00,
2013-01-06 10:09:00,21.2,-99.9,25.34,North,-999,0.0,4.9,-999,0.00,,,-99.99,FreeWX 2.04,2013-01-06 17:09:00,
2013-01-06 10:24:00,5.4,-99.9,25.34,South,177,5.0,6.9,-999,0.00,,,-99.99,FreeWX 2.04,2013-01-06 17:24:00,
2013-01-06 10:29:00,5.5,-99.9,25.34,South,180,5.0,7.8,-999,0.00,,,-99.99,FreeWX 2.04,2013-01-06 17:29:00,
2013-01-06 10:34:00,5.5,-99.9,25.34,South,185,6.0,7.8,-999,0.00,,,-99.99,FreeWX 2.04,2013-01-06 17:34:00,
2013-01-06 10:39:00,5.7,-99.9,25.34,South,188,5.0,6.7,-999,0.00,,,-99.99,FreeWX 2.04,2013-01-06 17:39:00,
2013-01-06 10:49:00,6.1,-99.9,25.34,South,172,5.0,6.3,-999,0.00,,,-99.99,FreeWX 2.04,2013-01-06 17:49:00,
2013-01-06 11:19:00,21.2,-99.9,25.31,South,183,4.0,6.3,-999,0.00,,,-99.99,FreeWX 2.04,2013-01-06 18:19:00,
2013-01-06 11:24:00,8.8,-99.9,25.31,South,180,4.0,5.8,-999,0.00,,,-99.99,FreeWX 2.04,2013-01-06 18:24:00,
2013-01-06 11:29:00,9.1,-99.9,25.31,South,178,4.0,6.7,-999,0.00,,,-99.99,FreeWX 2.04,2013-01-06 18:29:00,
2013-01-06 11:34:00,9.9,-99.9,25.31,South,182,4.0,4.5,-999,0.00,,,-99.99,FreeWX 2.04,2013-01-06 18:34:00,
2013-01-06 11:39:00,21.2,-99.9,25.31,South,183,3.0,5.8,-999,0.00,,,-99.99,FreeWX 2.04,2013-01-06 18:39:00,
2013-01-06 11:54:00,21.2,-99.9,25.28,South,173,4.0,6.3,-999,0.00,,,-99.99,FreeWX 2.04,2013-01-06 18:54:00,
2013-01-06 12:04:00,21.2,-99.9,25.28,South,187,4.0,7.4,-999,0.00,,,-99.99,FreeWX 2.04,2013-01-06 19:04:00,
2013-01-06 12:24:00,11.5,-99.9,25.28,SSW,205,6.0,7.8,-999,0.00,,,-99.99,FreeWX 2.04,2013-01-06 19:24:00,
2013-01-06 12:34:00,12.6,-99.9,25.28,SW,218,4.0,6.3,-999,0.00,,,-99.99,FreeWX 2.04,2013-01-06 19:34:00,
2013-01-06 12:39:00,13.1,-99.9,25.28,SSW,209,4.0,5.8,-999,0.00,,,-99.99,FreeWX 2.04,2013-01-06 19:39:00,
2013-01-06 12:44:00,13.1,-99.9,25.25,SSW,200,4.0,5.8,-999,0.00,,,-99.99,FreeWX 2.04,2013-01-06 19:44:00,
2013-01-06 12:49:00,13.6,-99.9,25.25,South,186,4.0,5.4,-999,0.00,,,-99.99,FreeWX 2.04,2013-01-06 19:49:00,
2013-01-06 12:55:00,13.3,-99.9,25.25,SSW,200,3.0,6.3,-999,0.00,,,-99.99,FreeWX 2.04,2013-01-06 19:55:00,
2013-01-06 13:00:00,13.5,-99.9,25.25,WSW,239,3.0,5.4,-999,0.00,,,-99.99,FreeWX 2.04,2013-01-06 20:00:00,
2013-01-06 13:10:00,13.8,-99.9,25.25,West,265,2.0,4.5,-999,0.00,,,-99.99,FreeWX 2.04,2013-01-06 20:10:00,
2013-01-06 13:15:00,14.2,0.1,25.22,West,265,1.0,3.6,53,0.00,,,-99.99,FreeWX 2.04,2013-01-06 20:15:00,
2013-01-06 13:20:00,14.7,0.3,25.22,West,265,1.0,3.6,52,0.00,,,-99.99,FreeWX 2.04,2013-01-06 20:20:00,
2013-01-06 13:25:00,14.9,0.1,25.22,West,265,2.0,3.6,51,0.00,,,-99.99,FreeWX 2.04,2013-01-06 20:25:00,
2013-01-06 13:30:00,14.9,-0.4,25.22,West,265,2.0,3.6,50,0.00,,,-99.99,FreeWX 2.04,2013-01-06 20:30:00,
2013-01-06 13:35:00,14.9,0.5,25.22,West,266,2.0,3.6,52,0.00,,,-99.99,FreeWX 2.04,2013-01-06 20:35:00,
2013-01-06 13:40:00,15.4,1.0,25.22,West,269,2.0,4.0,52,0.00,,,-99.99,FreeWX 2.04,2013-01-06 20:40:00,
2013-01-06 13:45:00,15.3,0.5,25.19,WNW,291,3.0,6.3,51,0.00,,,-99.99,FreeWX 2.04,2013-01-06 20:45:00,
2013-01-06 13:50:00,15.8,0.9,25.19,NNW,335,3.0,5.8,51,0.00,,,-99.99,FreeWX 2.04,2013-01-06 20:50:00,
2013-01-06 13:55:00,16.5,1.6,25.19,North,356,2.0,4.0,51,0.00,,,-99.99,FreeWX 2.04,2013-01-06 20:55:00,
2013-01-06 14:06:00,17.2,1.0,25.19,North,356,1.0,3.6,48,0.00,,,-99.99,FreeWX 2.04,2013-01-06 21:06:00,
2013-01-06 14:11:00,17.4,1.0,25.19,North,356,2.0,4.0,48,0.00,,,-99.99,FreeWX 2.04,2013-01-06 21:11:00,
2013-01-06 14:16:00,17.4,1.0,25.19,North,356,1.0,3.6,48,0.00,,,-99.99,FreeWX 2.04,2013-01-06 21:16:00,
2013-01-06 14:21:00,16.7,0.5,25.19,North,349,1.0,5.4,48,0.00,,,-99.99,FreeWX 2.04,2013-01-06 21:21:00,
2013-01-06 14:26:00,16.3,1.0,25.19,WNW,295,2.0,4.9,50,0.00,,,-99.99,FreeWX 2.04,2013-01-06 21:26:00,
2013-01-06 14:31:00,16.7,1.8,25.19,West,262,2.0,3.6,51,0.00,,,-99.99,FreeWX 2.04,2013-01-06 21:31:00,
2013-01-06 14:36:00,16.0,1.0,25.19,West,261,3.0,7.4,51,0.00,,,-99.99,FreeWX 2.04,2013-01-06 21:36:00,
2013-01-06 14:41:00,14.9,1.2,25.19,WSW,254,5.0,7.8,54,0.00,,,-99.99,FreeWX 2.04,2013-01-06 21:41:00,
2013-01-06 14:46:00,14.0,0.5,25.19,WSW,242,6.0,9.2,54,0.00,,,-99.99,FreeWX 2.04,2013-01-06 21:46:00,
2013-01-06 14:51:00,13.8,-99.9,25.19,WSW,239,6.0,7.8,-999,0.00,,,-99.99,FreeWX 2.04,2013-01-06 21:51:00,
2013-01-06 14:56:00,13.5,-99.9,25.19,WSW,243,6.0,7.8,-999,0.00,,,-99.99,FreeWX 2.04,2013-01-06 21:56:00,
2013-01-06 15:01:00,13.3,-99.9,25.19,WSW,241,6.0,6.9,-999,0.00,,,-99.99,FreeWX 2.04,2013-01-06 22:01:00,
2013-01-06 15:06:00,13.1,-99.9,25.19,WSW,237,5.0,6.7,-999,0.00,,,-99.99,FreeWX 2.04,2013-01-06 22:06:00,
2013-01-06 15:11:00,12.7,-99.9,25.19,WSW,244,5.0,6.3,-999,0.00,,,-99.99,FreeWX 2.04,2013-01-06 22:11:00,
2013-01-06 15:16:00,12.6,-99.9,25.19,WSW,257,5.0,6.7,-999,0.00,,,-99.99,FreeWX 2.04,2013-01-06 22:16:00,
2013-01-06 15:21:00,12.6,-99.9,25.19,West,259,5.0,5.8,-999,0.00,,,-99.99,FreeWX 2.04,2013-01-06 22:21:00,
2013-01-06 15:26:00,12.6,-99.9,25.19,WSW,257,4.0,5.8,-999,0.00,,,-99.99,FreeWX 2.04,2013-01-06 22:26:00,
2013-01-06 15:31:00,12.7,-99.9,25.19,West,259,4.0,5.4,-999,0.00,,,-99.99,FreeWX 2.04,2013-01-06 22:31:00,
2013-01-06 15:36:00,13.5,-99.9,25.19,West,262,2.0,3.1,-999,0.00,,,-99.99,FreeWX 2.04,2013-01-06 22:36:00,
2013-01-06 15:41:00,13.8,-99.9,25.19,North,-999,0.0,3.6,-999,0.00,,,-99.99,FreeWX 2.04,2013-01-06 22:41:00,
2013-01-06 15:46:00,14.2,1.4,25.19,West,263,1.0,3.6,56,0.00,,,-99.99,FreeWX 2.04,2013-01-06 22:46:00,
2013-01-06 15:51:00,14.2,1.0,25.19,West,263,1.0,3.6,55,0.00,,,-99.99,FreeWX 2.04,2013-01-06 22:51:00,
2013-01-06 15:56:00,14.4,1.2,25.19,West,263,1.0,0.0,55,0.00,,,-99.99,FreeWX 2.04,2013-01-06 22:56:00,
2013-01-06 16:01:00,14.4,1.2,25.19,North,-999,0.0,3.6,55,0.00,,,-99.99,FreeWX 2.04,2013-01-06 23:01:00,
2013-01-06 16:06:00,14.7,1.6,25.19,North,-999,0.0,3.1,55,0.00,,,-99.99,FreeWX 2.04,2013-01-06 23:06:00,
2013-01-06 16:11:00,14.7,1.6,25.19,West,263,1.0,4.0,55,0.00,,,-99.99,FreeWX 2.04,2013-01-06 23:11:00,
2013-01-06 16:16:00,14.4,1.2,25.19,West,259,2.0,4.5,55,0.00,,,-99.99,FreeWX 2.04,2013-01-06 23:16:00,
2013-01-06 16:21:00,14.2,1.0,25.19,WSW,255,3.0,4.0,55,0.00,,,-99.99,FreeWX 2.04,2013-01-06 23:21:00,
2013-01-06 16:26:00,14.2,1.0,25.19,WSW,254,2.0,3.1,55,0.00,,,-99.99,FreeWX 2.04,2013-01-06 23:26:00,
2013-01-06 16:31:00,14.2,1.0,25.16,North,-999,0.0,2.7,55,0.00,,,-99.99,FreeWX 2.04,2013-01-06 23:31:00,
2013-01-06 16:36:00,14.2,1.0,25.16,North,-999,0.0,0.0,55,0.00,,,-99.99,FreeWX 2.04,2013-01-06 23:36:00,
2013-01-06 16:41:00,14.2,1.0,25.16,North,-999,0.0,0.0,55,0.00,,,-99.99,FreeWX 2.04,2013-01-06 23:41:00,
2013-01-06 16:46:00,14.2,1.0,25.16,North,-999,0.0,3.6,55,0.00,,,-99.99,FreeWX 2.04,2013-01-06 23:46:00,
2013-01-06 16:51:00,13.8,-99.9,25.16,WSW,249,2.0,4.5,-999,0.00,,,-99.99,FreeWX 2.04,2013-01-06 23:51:00,
2013-01-06 16:56:00,13.6,-99.9,25.16,WSW,242,3.0,4.0,-999,0.00,,,-99.99,FreeWX 2.04,2013-01-06 23:56:00,
2013-01-06 17:01:00,13.5,-99.9,25.16,WSW,240,3.0,4.0,-999,0.00,,,-99.99,FreeWX 2.04,2013-01-07 00:01:00,
2013-01-06 17:06:00,13.1,-99.9,25.16,WSW,240,2.0,3.6,-999,0.00,,,-99.99,FreeWX 2.04,2013-01-07 00:06:00,
2013-01-06 17:11:00,13.1,-99.9,25.16,WSW,240,2.0,3.1,-999,0.00,,,-99.99,FreeWX 2.04,2013-01-07 00:11:00,
2013-01-06 17:16:00,12.9,-99.9,25.16,WSW,240,2.0,3.6,-999,0.00,,,-99.99,FreeWX 2.04,2013-01-07 00:16:00,
2013-01-06 17:21:00,13.1,-99.9,25.16,WSW,240,2.0,3.6,-999,0.00,,,-99.99,FreeWX 2.04,2013-01-07 00:21:00,
2013-01-06 17:26:00,12.7,-99.9,25.16,WSW,240,2.0,3.6,-999,0.00,,,-99.99,FreeWX 2.04,2013-01-07 00:26:00,
2013-01-06 17:31:00,12.9,-99.9,25.16,WSW,240,1.0,4.0,-999,0.00,,,-99.99,FreeWX 2.04,2013-01-07 00:31:00,
2013-01-06 17:36:00,12.7,-99.9,25.16,North,-999,0.0,3.1,-999,0.00,,,-99.99,FreeWX 2.04,2013-01-07 00:36:00,
2013-01-06 17:41:00,12.7,-99.9,25.16,WSW,240,1.0,4.0,-999,0.00,,,-99.99,FreeWX 2.04,2013-01-07 00:41:00,
2013-01-06 17:46:00,12.6,-99.9,25.16,WSW,240,2.0,4.0,-999,0.00,,,-99.99,FreeWX 2.04,2013-01-07 00:46:00,
2013-01-06 17:51:00,12.0,-99.9,25.16,SW,230,3.0,4.9,-999,0.00,,,-99.99,FreeWX 2.04,2013-01-07 00:51:00,
2013-01-06 17:56:00,11.7,-99.9,25.16,SW,214,4.0,6.3,-999,0.00,,,-99.99,FreeWX 2.04,2013-01-07 00:56:00,
2013-01-06 18:01:00,11.1,-99.9,25.16,SSW,197,4.0,6.9,-999,0.00,,,-99.99,FreeWX 2.04,2013-01-07 01:01:00,
2013-01-06 18:06:00,10.9,-99.9,25.16,South,178,4.0,6.3,-999,0.00,,,-99.99,FreeWX 2.04,2013-01-07 01:06:00,
2013-01-06 18:11:00,10.9,-99.9,25.16,South,170,4.0,6.7,-999,0.00,,,-99.99,FreeWX 2.04,2013-01-07 01:11:00,
2013-01-06 18:16:00,10.8,-99.9,25.16,SSE,164,4.0,5.4,-999,0.00,,,-99.99,FreeWX 2.04,2013-01-07 01:16:00,
2013-01-06 18:21:00,10.4,-99.9,25.16,SSE,160,3.0,4.5,-999,0.00,,,-99.99,FreeWX 2.04,2013-01-07 01:21:00,
2013-01-06 18:26:00,10.4,-99.9,25.16,SSE,162,2.0,4.5,-999,0.00,,,-99.99,FreeWX 2.04,2013-01-07 01:26:00,
2013-01-06 18:31:00,10.4,-99.9,25.16,SSE,162,2.0,4.5,-999,0.00,,,-99.99,FreeWX 2.04,2013-01-07 01:31:00,
2013-01-06 18:36:00,10.4,-99.9,25.16,SSE,162,3.0,4.0,-999,0.00,,,-99.99,FreeWX 2.04,2013-01-07 01:36:00,
2013-01-06 18:41:00,10.6,-99.9,25.16,SSE,162,2.0,3.6,-999,0.00,,,-99.99,FreeWX 2.04,2013-01-07 01:41:00,
2013-01-06 18:46:00,10.4,-99.9,25.16,SSE,162,1.0,0.0,-999,0.00,,,-99.99,FreeWX 2.04,2013-01-07 01:46:00,
2013-01-06 18:52:00,10.4,-99.9,25.16,North,-999,0.0,0.0,-999,0.00,,,-99.99,FreeWX 2.04,2013-01-07 01:52:00,
2013-01-06 18:57:00,10.4,-99.9,25.16,North,-999,0.0,0.0,-999,0.00,,,-99.99,FreeWX 2.04,2013-01-07 01:57:00,
2013-01-06 19:02:00,10.2,-99.9,25.16,North,-999,0.0,0.0,-999,0.00,,,-99.99,FreeWX 2.04,2013-01-07 02:02:00,
2013-01-06 19:07:00,10.2,-99.9,25.16,North,-999,0.0,0.0,-999,0.00,,,-99.99,FreeWX 2.04,2013-01-07 02:07:00,
2013-01-06 19:12:00,10.4,-99.9,25.16,North,-999,0.0,0.0,-999,0.00,,,-99.99,FreeWX 2.04,2013-01-07 02:12:00,
2013-01-06 19:17:00,10.6,-99.9,25.16,North,-999,0.0,0.0,-999,0.00,,,-99.99,FreeWX 2.04,2013-01-07 02:17:00,
2013-01-06 19:22:00,10.8,-99.9,25.16,North,-999,0.0,0.0,-999,0.00,,,-99.99,FreeWX 2.04,2013-01-07 02:22:00,
2013-01-06 19:27:00,10.9,-99.9,25.16,North,-999,0.0,0.0,-999,0.00,,,-99.99,FreeWX 2.04,2013-01-07 02:27:00,
2013-01-06 19:32:00,11.1,-99.9,25.16,North,-999,0.0,0.0,-999,0.00,,,-99.99,FreeWX 2.04,2013-01-07 02:32:00,
2013-01-06 19:37:00,11.1,-99.9,25.16,North,-999,0.0,0.0,-999,0.00,,,-99.99,FreeWX 2.04,2013-01-07 02:37:00,
2013-01-06 19:42:00,10.9,-99.9,25.16,North,-999,0.0,0.0,-999,0.00,,,-99.99,FreeWX 2.04,2013-01-07 02:42:00,
2013-01-06 19:47:00,10.4,-99.9,25.16,SSE,165,2.0,5.4,-999,0.00,,,-99.99,FreeWX 2.04,2013-01-07 02:47:00,
2013-01-06 19:52:00,10.4,-99.9,25.16,South,171,4.0,5.4,-999,0.00,,,-99.99,FreeWX 2.04,2013-01-07 02:52:00,
2013-01-06 19:57:00,10.4,-99.9,25.16,South,178,4.0,6.7,-999,0.00,,,-99.99,FreeWX 2.04,2013-01-07 02:57:00,
2013-01-06 20:02:00,10.4,-99.9,25.16,South,181,4.0,6.3,-999,0.00,,,-99.99,FreeWX 2.04,2013-01-07 03:02:00,
2013-01-06 20:07:00,10.4,-99.9,25.16,South,178,3.0,4.5,-999,0.00,,,-99.99,FreeWX 2.04,2013-01-07 03:07:00,
2013-01-06 20:12:00,10.4,-99.9,25.16,North,-999,0.0,0.0,-999,0.00,,,-99.99,FreeWX 2.04,2013-01-07 03:12:00,
2013-01-06 20:17:00,10.2,-99.9,25.16,North,-999,0.0,0.0,-999,0.00,,,-99.99,FreeWX 2.04,2013-01-07 03:17:00,
2013-01-06 20:22:00,10.2,-99.9,25.16,North,-999,0.0,0.0,-999,0.00,,,-99.99,FreeWX 2.04,2013-01-07 03:22:00,
2013-01-06 20:27:00,10.4,-99.9,25.16,North,-999,0.0,0.0,-999,0.00,,,-99.99,FreeWX 2.04,2013-01-07 03:27:00,
2013-01-06 20:32:00,10.2,-99.9,25.16,North,-999,0.0,0.0,-999,0.00,,,-99.99,FreeWX 2.04,2013-01-07 03:32:00,
2013-01-06 20:37:00,10.2,-99.9,25.16,North,-999,0.0,0.0,-999,0.00,,,-99.99,FreeWX 2.04,2013-01-07 03:37:00,
2013-01-06 20:42:00,10.2,-99.9,25.16,North,-999,0.0,0.0,-999,0.00,,,-99.99,FreeWX 2.04,2013-01-07 03:42:00,
2013-01-06 20:47:00,10.2,-99.9,25.16,North,-999,0.0,0.0,-999,0.00,,,-99.99,FreeWX 2.04,2013-01-07 03:47:00,
2013-01-06 20:52:00,10.0,-99.9,25.16,North,-999,0.0,0.0,-999,0.00,,,-99.99,FreeWX 2.04,2013-01-07 03:52:00,
2013-01-06 20:57:00,10.0,-99.9,25.16,North,-999,0.0,0.0,-999,0.00,,,-99.99,FreeWX 2.04,2013-01-07 03:57:00,
2013-01-06 21:02:00,9.9,-99.9,25.16,North,-999,0.0,0.0,-999,0.00,,,-99.99,FreeWX 2.04,2013-01-07 04:02:00,
2013-01-06 21:07:00,9.7,-99.9,25.16,North,-999,0.0,0.0,-999,0.00,,,-99.99,FreeWX 2.04,2013-01-07 04:07:00,
2013-01-06 21:12:00,9.5,-99.9,25.16,North,-999,0.0,0.0,-999,0.00,,,-99.99,FreeWX 2.04,2013-01-07 04:12:00,
2013-01-06 21:17:00,9.5,-99.9,25.16,North,-999,0.0,0.0,-999,0.00,,,-99.99,FreeWX 2.04,2013-01-07 04:17:00,
2013-01-06 21:22:00,9.1,-99.9,25.16,North,-999,0.0,2.7,-999,0.00,,,-99.99,FreeWX 2.04,2013-01-07 04:22:00,
2013-01-06 21:27:00,8.8,-99.9,25.16,South,174,1.0,3.6,-999,0.00,,,-99.99,FreeWX 2.04,2013-01-07 04:27:00,
2013-01-06 21:32:00,8.6,-99.9,25.16,South,174,1.0,2.7,-999,0.00,,,-99.99,FreeWX 2.04,2013-01-07 04:32:00,
2013-01-06 21:37:00,8.8,-99.9,25.16,North,-999,0.0,0.0,-999,0.00,,,-99.99,FreeWX 2.04,2013-01-07 04:37:00,
2013-01-06 21:42:00,8.8,-99.9,25.16,North,-999,0.0,0.0,-999,0.00,,,-99.99,FreeWX 2.04,2013-01-07 04:42:00,
2013-01-06 21:47:00,8.6,-99.9,25.16,North,-999,0.0,0.0,-999,0.00,,,-99.99,FreeWX 2.04,2013-01-07 04:47:00,
2013-01-06 21:52:00,8.6,-99.9,25.16,North,-999,0.0,0.0,-999,0.00,,,-99.99,FreeWX 2.04,2013-01-07 04:52:00,
2013-01-06 21:57:00,8.8,-99.9,25.16,North,-999,0.0,0.0,-999,0.00,,,-99.99,FreeWX 2.04,2013-01-07 04:57:00,
2013-01-06 22:02:00,8.8,-99.9,25.16,North,-999,0.0,0.0,-999,0.00,,,-99.99,FreeWX 2.04,2013-01-07 05:02:00,
2013-01-06 22:07:00,8.8,-99.9,25.16,North,-999,0.0,0.0,-999,0.00,,,-99.99,FreeWX 2.04,2013-01-07 05:07:00,
2013-01-06 22:12:00,9.1,-99.9,25.16,North,-999,0.0,4.0,-999,0.00,,,-99.99,FreeWX 2.04,2013-01-07 05:12:00,
2013-01-06 22:17:00,9.0,-99.9,25.16,North,-999,0.0,0.0,-999,0.00,,,-99.99,FreeWX 2.04,2013-01-07 05:17:00,
2013-01-06 22:22:00,8.8,-99.9,25.16,North,-999,0.0,0.0,-999,0.00,,,-99.99,FreeWX 2.04,2013-01-07 05:22:00,
2013-01-06 22:27:00,8.8,-99.9,25.16,North,-999,0.0,0.0,-999,0.00,,,-99.99,FreeWX 2.04,2013-01-07 05:27:00,
2013-01-06 22:32:00,8.6,-99.9,25.16,North,-999,0.0,0.0,-999,0.00,,,-99.99,FreeWX 2.04,2013-01-07 05:32:00,
2013-01-06 22:37:00,8.6,-99.9,25.16,North,-999,0.0,0.0,-999,0.00,,,-99.99,FreeWX 2.04,2013-01-07 05:37:00,
2013-01-06 22:42:00,8.4,-99.9,25.16,North,-999,0.0,0.0,-999,0.00,,,-99.99,FreeWX 2.04,2013-01-07 05:42:00,
2013-01-06 22:47:00,8.2,-99.9,25.16,North,-999,0.0,0.0,-999,0.00,,,-99.99,FreeWX 2.04,2013-01-07 05:47:00,
2013-01-06 22:52:00,8.2,-99.9,25.16,North,-999,0.0,0.0,-999,0.00,,,-99.99,FreeWX 2.04,2013-01-07 05:52:00,
2013-01-06 22:57:00,8.4,-99.9,25.16,North,-999,0.0,0.0,-999,0.00,,,-99.99,FreeWX 2.04,2013-01-07 05:57:00,
2013-01-06 23:02:00,8.6,-99.9,25.16,North,-999,0.0,0.0,-999,0.00,,,-99.99,FreeWX 2.04,2013-01-07 06:02:00,
2013-01-06 23:07:00,8.8,-99.9,25.16,North,-999,0.0,0.0,-999,0.00,,,-99.99,FreeWX 2.04,2013-01-07 06:07:00,
2013-01-06 23:12:00,8.8,-99.9,25.16,North,-999,0.0,0.0,-999,0.00,,,-99.99,FreeWX 2.04,2013-01-07 06:12:00,
2013-01-06 23:17:00,8.8,-99.9,25.16,North,-999,0.0,6.7,-999,0.00,,,-99.99,FreeWX 2.04,2013-01-07 06:17:00,
2013-01-06 23:22:00,7.9,-99.9,25.16,SW,216,1.0,6.9,-999,0.00,,,-99.99,FreeWX 2.04,2013-01-07 06:22:00,
2013-01-06 23:27:00,7.5,-99.9,25.16,SW,229,1.0,0.0,-999,0.00,,,-99.99,FreeWX 2.04,2013-01-07 06:27:00,
2013-01-06 23:32:00,7.3,-99.9,25.16,North,-999,0.0,0.0,-999,0.00,,,-99.99,FreeWX 2.04,2013-01-07 06:32:00,
2013-01-06 23:37:00,7.0,-99.9,25.16,North,-999,0.0,0.0,-999,0.00,,,-99.99,FreeWX 2.04,2013-01-07 06:37:00,
2013-01-06 23:42:00,6.8,-99.9,25.16,North,-999,0.0,0.0,-999,0.00,,,-99.99,FreeWX 2.04,2013-01-07 06:42:00,
2013-01-06 23:47:00,6.8,-99.9,25.16,North,-999,0.0,0.0,-999,0.00,,,-99.99,FreeWX 2.04,2013-01-07 06:47:00,
2013-01-06 23:52:00,6.6,-99.9,25.16,North,-999,0.0,0.0,-999,0.00,,,-99.99,FreeWX 2.04,2013-01-07 06:52:00,
2013-01-06 23:57:00,6.4,-99.9,25.16,North,-999,0.0,0.0,-999,0.00,,,-99.99,FreeWX 2.04,2013-01-07 06:57:00,